Погода Теплый Ключ

Погода Теплый Ключ : погода сейчас, прогноз погоды и архив. Всё, что Вы хотите узнать о погоде Теплый Ключ!

Хотите узнать прогноз погоды Теплый Ключ? Тогда Вам сюда: Погода Теплый Ключ

Поиск расширенной информации на нашем сайте:

Другие новости

Новости СМИ2

Главная страница сайта

Новости сайта

03.07.2017

Напоминаем, что на нашем специализированном сайте Метеоцентр.Азия вы можете получить высокодетализированные автоматические прогнозы погоды по пунктам России, СНГ и мира в авиационном формате (включающие направление и скорость ветра, видимость, явления погоды, количество и форму облачности, нижнюю и верхнюю границу облачности).


Погода Теплый Ключ - сегодня

Время (UTC), дата Ветер
(°,м/с) 
Видим.   Явления Облачность Т
(°С)
Тd
(°С)
f(%) Тe
(°С)
Pmin
(гПа)
dP
(гПа)
Po
(мм)
O2
(г/м3)
Тmin Tmax R s Состояние
почвы
21 21.11.17 120 (ЮВ) 10 км    10/0 верхняя 
[Cs]
-37 -41.1 66 -41  1011.9  0.5  728  341  -41.5      37  равномерный
сухой снег
100% 
00 22.11.17 090 (В) 20000 м    10/0 верхняя 
[Cs]
-36.9 -41.1 65 -38  1012.4  0.5  728  341           
03 22.11.17 090 (В) 20000 м    4/4 2000 м средняя 
[Ac trans]
-34 -39 61 -38  1012  0.2  728  337           
06 22.11.17 090 (В) 20000 м    4/4 2000 м средняя 
[Ac trans]
-36.1 -40.4 64 -37  1013.5  729  341           
09 22.11.17 100 (В) 10 км    ясно 
-42.7 -47.5 59 -44  1016.1  1.3  730  351    -34.1       
12 22.11.17 020 (С) н/о    н/о 
-43.2 -47.8 61 -45  1017.4  1.1  731  352           
15 22.11.17 тихо ()   н/о    н/о 
-41.7 -46.2 61 -42  1018.2  732  350           
18 22.11.17 010 (С) н/о    н/о 
-41.3 -45.7 62 -43  1019.3  1.2  733  350           
21 22.11.17 130 (ЮВ) 10 км    ясно 
-40.4 -45.3 60 -42  1020.3  1.1  734  349  -43.5      37  равномерный
сухой снег
100% 
00 23.11.17 090 (В) 20000 м    4/4 2000 м средняя 
[Ac trans]
-39.5 -43.5 66 -41  1021.3  734  348           
03 23.11.17 120 (ЮВ) 20000 м    4/4 2000 м средняя 
[Ac trans]
-35.1 -39.4 65 -36  1021.5  1.1  735  342           
06 23.11.17 120 (ЮВ) 20000 м    4/4 2000 м средняя 
[Ac trans]
-36.6 -40.7 66 -38  1023  736  344           
09 23.11.17 тихо ()   20000 м    ясно 
-41.9 -46.4 61 -42  1025  1.1  737  353    -34.1       
12 23.11.17 050 (СВ) н/о    н/о 
-44.4 -49.2 59 -46  1026  0.6  737  357           
15 23.11.17 090 (В) н/о    н/о 
-45.2 -50.2 57 -47  1025.9  -0.3  737  358           
18 23.11.17 080 (В) н/о    н/о 
-46.1 -51.1 57 -48  1025.5  -0.5  737  359           
21 23.11.17 060 (СВ) 10 км    ясно 
-45.2 -49.7 61 -47  1024.9  -0.5  736  358  -46.4      37  равномерный
сухой снег
100% 
00 24.11.17 070 (В) 20000 м    ясно 
-45.8 -51.3 54 -47  1024.3  -0.7  736  358           
03 24.11.17 110 (В) 20000 м    ясно 
-40 -44.8 60 -41  1021.6  -1.5  735  349           
06 24.11.17 110 (В) 20000 м    ясно 
-40.4 -45.3 60 -42  1020.1  -1.5  733  349           
09 24.11.17 090 (В) 10 км    4/4 2000 м средняя 
[Ac trans]
-43.5 -48.2 60 -45  1018.8  -1.9  732  353    -38.9       
12 24.11.17 080 (В) н/о    н/о 
-44.3 -49.2 58 -46  1017.1  -2  731  354           
15 24.11.17 090 (В) н/о    н/о 
-44.4 -49.3 58 -46  1013.9  -3  728  353           
18 24.11.17 090 (В) н/о    н/о 
-43.5 -48.3 59 -45  1011.5  -2  727  350           
21 24.11.17 тихо ()   4000 м  слаб. снег  10/10 2000 м 
[Ns]
-39.9 -44.8 60 -40  1009.3  -1.6  726  344  -45    0.2  37  равномерный
сухой снег
100% 
Время (UTC), дата Ветер
(°,м/с) 
Видим.   Явления Облачность Т
(°С)
Тd
(°С)
f(%) Тe
(°С)
Pmin
(гПа)
dP
(гПа)
Po
(мм)
O2
(г/м3)
Тmin Tmax R s Состояние
почвы

Для получения пояснительной информации подведите курсор к названию столбца.

ПОГОДА Теплый Ключ - архив

Всё, что Вы хотите узнать о погоде Теплый Ключ - удобно и подробно!

Выберите нужную дату (начиная с 1 января 2015* года) и нажмите кнопку "Найти".
Будут отображены архивные сводки погоды по пункту Теплый Ключ, начиная с указанной даты.


Отображать данные в формате CSV (для использования в таблицах Excel)


Внимание! Наш архив погоды предназначен исключительно для личного некоммерческого использования в познавательных целях. Если Вам необходимы официальные справки о состоянии погоды (для производственных, юридических, коммерческих и т.п. целей), обращайтесь в органы Росгидромета.

*Примечание: данная дата относится к архиву по метеостанциям СССР (Россия, СНГ, Балтия).
Архив по метеостанциям Зарубежной Европы и Азии (кроме Китая) хранится 10 дней, по другим регионам земного шара (Китай, Африка, Америка, Австралия, Океания) - 1 день.

Теплый Ключ - район местоположения метеостанции


Название, широта, долгота, высота метеостанции:
Теплый Ключ 62.8°ш. 136.8°д. 289 м над ур. моря [Российская Федерация]

Дополнительная информация

В oтличие oт бoльшинства пoгoдных сайтoв мы публикуем пoдрoбную метеoинфoрмацию в детальнoм прoфессиoнальнoм фoрмате.

Характеристики температуры и влажнoсти вoздуха измеряются на высoте 2 м в тени вдали oт зданий и деревьев.
Скoрoсть ветра измеряется на высoте 10 м (на урoвне рoста челoвека скoрoсть ветра ниже в 1.5-2 раза). Если метеoстанция нахoдится в гoрoде или в лесу, тo скoрoсть ветра занижена на 2-4 м/с пo сравнению с oткрытым местoм. Скoрoсть ветра над акватoриями крупных рек и oзёр, а также на вершинах хoлмoв на 2-5 м/с выше, чем в oбычных услoвиях.
Атмoсфернoе давление в разных тoчках местнoсти мoжет значительнo oтличаться oт давления на метеoстанции, в зависимoсти oт услoвий рельефа (при пoдъёме на 10 м давление пoнижается примернo на 1 мм рт.ст.).